User: anonymous   Login
Location: Sungai Laei
(2.6000°N, 113.7167°E)
Time: 07:49:14
(UTC+00:00)
Language:

Cosmos 1953 Rocket - Orbit

View from above orbital plane
View from above orbital plane
View from above satellite
View from above satellite

Ground track
Ground track

The orbit data is extracted from the following two-line orbital elements,

1 19211U 88050B   22222.02884688  .00000240  00000-0  26282-4 0  9999
2 19211  82.5238 243.9566 0022864  45.3766 314.9309 14.83267987824336
Epoch (UTC): 10 August 2022 00:41:32
Eccentricity: 0.0022864
inclination: 82.5238°
perigee height: 603 km
apogee height: 635 km
right ascension of ascending node: 243.9566°
argument of perigee: 45.3766°
revolutions per day: 14.83267987
mean anomaly at epoch: 314.9309°
orbit number at epoch: 82433

The dashed part of the orbit path shows where the satellite is in the earth's shadow,  

DLR